Home > Weather > Huntsville > Past weeks

Flag for USA Past Weather in Huntsville, Alabama, USA — Yesterday and Last 2 Weeks

Now
82 °F

Passing clouds.


Feels Like: 84 °F
Forecast: 67 / 89 °F
Wind: No wind

Location: Huntsville International / Jones Field

Current Time: May 30, 2016 at 9:47:23 AM

Latest Report: May 30, 2016 at 8:53 AM


Visibility: 10 mi

Pressure: 30.04 "Hg

Humidity: 58%

Dew Point: 66 °F

Location of HuntsvilleLocation

Past Weather in Huntsville — Graph

°F

Huntsville Temperature Yesterday

Maximum temperature yesterday: 91 °F (at 4:53 PM)
Minimum temperature yesterday: 64 °F (at 4:53 AM)
Average temperature yesterday: 78 °F

High & Low Weather Summary for the Past Weeks

 TemperatureHumidityPressure
High91 °F (May 29, 4:53 PM)90% (May 21, 12:53 AM)30.20 "Hg (May 21, 12:53 AM)
Low52 °F (May 16, 12:53 AM)23% (May 22, 3:53 PM)29.91 "Hg (May 17, 5:53 PM)
Average72 °F60%30.04 "Hg
* Reported May 15 7:53 AM — May 30 7:53 AM, Huntsville, Weather by CustomWeather, © 2016

Note: Actual official high and low records may vary slightly from our data, if they occured in-between our weather recording intervals... More about our weather records

Advertising

Huntsville Weather History for the Previous 24 Hours

Scroll right to see more
 ConditionsComfort  
Time TempWeatherWind HumidityBarometerVisibility
7:53 AM
Mon, May 30
75 °FScattered clouds.No wind74%30.04 "Hg10 mi
6:53 AM69 °FPartly sunny.No wind84%30.02 "Hg9 mi
5:53 AM64 °FPassing clouds.No wind90%30.01 "Hg8 mi
4:53 AM66 °FClear.No wind84%30.00 "Hg10 mi
3:53 AM66 °FClear.No wind84%30.00 "Hg10 mi
2:53 AM68 °FClear.3 mph84%30.01 "Hg10 mi
1:53 AM70 °FClear.No wind79%30.01 "Hg10 mi
12:53 AM69 °FClear.3 mph81%30.01 "Hg10 mi
11:53 PM
Sun, May 29
70 °FClear.No wind79%30.02 "Hg10 mi
10:53 PM77 °FClear.3 mph62%30.02 "Hg10 mi
9:53 PM77 °FPassing clouds.5 mph60%30.02 "Hg10 mi
8:53 PM80 °FPassing clouds.6 mph54%30.01 "Hg10 mi
7:53 PM82 °FPassing clouds.3 mph49%30.01 "Hg10 mi
6:53 PM88 °FPassing clouds.5 mph40%30.00 "Hg10 mi
5:53 PM90 °FPassing clouds.6 mph38%30.00 "Hg10 mi
4:53 PM91 °FScattered clouds.5 mph36%30.01 "Hg10 mi
3:53 PM88 °FScattered clouds.7 mph40%30.03 "Hg10 mi
2:53 PM89 °FPartly sunny.7 mph41%30.06 "Hg10 mi
1:53 PM90 °FScattered clouds.6 mph37%30.07 "Hg10 mi
12:53 PM86 °FPartly sunny.6 mph45%30.09 "Hg10 mi
11:53 AM84 °FPartly sunny.9 mph53%30.11 "Hg10 mi
10:53 AM84 °FScattered clouds.6 mph51%30.12 "Hg10 mi
9:53 AM79 °FScattered clouds.3 mph60%30.13 "Hg10 mi
Weather by CustomWeather, © 2016

See weather overviewHow to use our weather pages